Weather History for Honolulu, HI

Change the Weather History Date:

Sunday, September 8, 2013

  Actual Average Record
Temperature  
Mean Temperature 83 °F 82 °F  
Max Temperature 90 °F 89 °F 92 °F (1967)
Min Temperature 76 °F 75 °F 68 °F (1955)
Degree Days  
Heating Degree Days 0 0  
Month to date heating degree days 0 0  
Since 1 July heating degree days 0 0  
Cooling Degree Days 18 17  
Month to date cooling degree days 124 136  
Year to date cooling degree days 2984 3120  
Growing Degree Days 32 (Base 50)    
Moisture  
Dew Point 67 °F    
Average Humidity 59    
Maximum Humidity 74    
Minimum Humidity 44    
Precipitation  
Precipitation 0.00 in 0.02 in 0.22 in (1962)
Month to date precipitation 0.11 0.15  
Year to date precipitation 9.19 9.05  
Snow  
Snow 0.00 in - - ()
Month to date snowfall 0.0  
Since 1 July snowfall 0.0  
Since 1 September snowfall 0.0  
Snow Depth 0.00 in    
Sea Level Pressure  
Sea Level Pressure 30.03 in    
Wind  
Wind Speed 13 mph (ENE)    
Max Wind Speed 21 mph    
Max Gust Speed 26 mph    
Visibility 10 miles    
Events      
T = Trace of Precipitation, MM = Missing Value Source: NWS Daily Summary

Daily Weather History Graph

Daily Weather History Graph

Search for Another Location

Airport:

Trip Planner

Search our weather history database for the weather conditions in past years. The results will help you decide how hot, cold, wet, or windy it might be!

Date:

Astronomy

Sep. 08, 2013 Rise Set
Actual Time 6:17 AM HST 6:40 PM HST
Civil Twilight 5:54 AM HST 7:03 PM HST
Nautical Twilight 5:28 AM HST 7:29 PM HST
Astronomical Twilight 5:02 AM HST 7:55 PM HST
Moon 9:14 AM HST (9/8) 8:58 PM HST (9/8)
Length of Visible Light 13h 08m
Length of Day
12h 23m
Waxing Crescent, 13% of the Moon is Illuminated
Sep 8
Waxing Crescent
Sep 12
First Quarter
Sep 19
Full
Sep 26
Last Quarter
Oct 4
New

Hourly Weather History & Observations

Time (HST) Temp. Heat Index Dew Point Humidity Pressure Visibility Wind Dir Wind Speed Gust Speed Precip Events Conditions
12:53 AM 77.0 °F - 68.0 °F 74% 30.03 in 10.0 mi ENE 8.1 mph - N/A   Partly Cloudy
1:53 AM 77.0 °F - 68.0 °F 74% 30.01 in 10.0 mi East 10.4 mph - N/A   Partly Cloudy
2:53 AM 77.0 °F - 66.9 °F 71% 30.00 in 10.0 mi ENE 6.9 mph - N/A   Partly Cloudy
3:53 AM 77.0 °F - 66.9 °F 71% 29.99 in 10.0 mi NE 10.4 mph - N/A   Partly Cloudy
4:53 AM 77.0 °F - 66.9 °F 71% 30.00 in 10.0 mi ENE 11.5 mph - N/A   Partly Cloudy
5:53 AM 77.0 °F - 66.9 °F 71% 30.01 in 10.0 mi ENE 12.7 mph - N/A   Partly Cloudy
6:53 AM 77.0 °F - 68.0 °F 74% 30.02 in 10.0 mi ENE 10.4 mph - N/A   Scattered Clouds
7:53 AM 80.1 °F 82.7 °F 68.0 °F 67% 30.03 in 10.0 mi East 10.4 mph - N/A   Scattered Clouds
8:53 AM 82.9 °F 85.0 °F 66.0 °F 56% 30.04 in 10.0 mi ENE 16.1 mph - N/A   Scattered Clouds
9:53 AM 84.9 °F 87.1 °F 66.0 °F 53% 30.05 in 10.0 mi ENE 13.8 mph - N/A   Scattered Clouds
10:53 AM 86.0 °F 87.6 °F 64.9 °F 49% 30.05 in 10.0 mi ENE 15.0 mph 21.9 mph N/A   Scattered Clouds
11:53 AM 88.0 °F 89.3 °F 64.0 °F 45% 30.04 in 10.0 mi ENE 15.0 mph 23.0 mph N/A   Scattered Clouds
12:53 PM 89.1 °F 91.0 °F 64.9 °F 45% 30.03 in 10.0 mi NE 16.1 mph 23.0 mph N/A   Scattered Clouds
1:53 PM 89.1 °F 91.0 °F 64.9 °F 45% 30.01 in 10.0 mi NE 17.3 mph 25.3 mph N/A   Scattered Clouds
2:53 PM 88.0 °F 89.6 °F 64.9 °F 46% 29.99 in 10.0 mi ENE 17.3 mph 24.2 mph N/A   Scattered Clouds
3:53 PM 87.1 °F 89.2 °F 66.0 °F 49% 29.99 in 10.0 mi ENE 13.8 mph - N/A   Scattered Clouds
4:53 PM 86.0 °F 88.2 °F 66.0 °F 51% 30.00 in 10.0 mi NE 13.8 mph 21.9 mph N/A   Partly Cloudy
5:53 PM 82.9 °F 84.6 °F 64.9 °F 54% 30.02 in 10.0 mi ENE 17.3 mph - N/A   Partly Cloudy
6:53 PM 81.0 °F 83.3 °F 66.9 °F 62% 30.03 in 10.0 mi ENE 13.8 mph - N/A   Partly Cloudy
7:53 PM 80.1 °F 82.7 °F 68.0 °F 67% 30.04 in 10.0 mi ENE 13.8 mph 21.9 mph N/A   Partly Cloudy
8:53 PM 80.1 °F 82.3 °F 66.9 °F 64% 30.06 in 10.0 mi ENE 13.8 mph 20.7 mph N/A   Partly Cloudy
9:53 PM 80.1 °F 82.3 °F 66.9 °F 64% 30.07 in 10.0 mi NE 10.4 mph - N/A   Partly Cloudy
10:53 PM 79.0 °F - 66.9 °F 66% 30.07 in 10.0 mi ENE 10.4 mph - N/A   Scattered Clouds
11:53 PM 79.0 °F - 66.9 °F 66% 30.06 in 10.0 mi ENE 11.5 mph - N/A   Scattered Clouds